GFSFLT1_prec_precacc_144.txt.gz
Total_Precipitation_Accumulation
0.03 0.03 0.03 0.08 0.13 0.12 0.68 1.07 1.36 1.46 2.16 2.03 1.81 1.12 0.92 0.86 1.15 1.15 0.99 1.18 1.31 0.82 0.56 0.42 0.37 0.41 0.37 0.33 0.40 0.43 0.51 0.36
0.01 0.02 0.05 0.08 0.12 0.31 0.81 1.22 1.53 1.22 0.84 0.67 0.93 0.85 0.80 0.91 1.02 0.99 0.78 0.91 0.99 1.26 0.84 0.54 0.40 0.45 0.50 0.54 0.40 0.25 0.27 0.34
0.02 0.04 0.10 0.14 0.27 0.38 0.41 0.37 0.54 0.23 0.16 0.25 0.56 0.64 0.75 0.87 1.09 0.85 0.71 0.87 0.76 0.91 0.91 0.82 0.49 0.56 0.55 0.65 0.67 0.46 0.23 0.39
0.02 0.09 0.13 0.15 0.15 0.17 0.06 0.06 0.27 0.23 0.13 0.24 0.50 0.84 1.02 1.19 1.44 1.29 0.90 1.04 1.00 0.90 0.88 0.93 0.69 0.66 0.72 0.67 0.68 0.50 0.32 0.31
0.01 0.01 0.02 0.02 0.02 0.03 0.02 0.07 0.14 0.20 0.26 0.33 0.43 0.68 0.73 0.84 0.89 1.14 0.95 0.91 1.02 1.00 0.91 1.14 1.10 0.90 0.69 0.59 0.69 0.59 0.42 0.25
0.00 0.01 0.02 0.01 0.04 0.04 0.10 0.13 0.16 0.15 0.23 0.41 0.35 0.47 0.63 0.75 0.90 1.17 1.32 0.97 0.78 0.77 0.80 1.02 1.12 0.90 0.78 0.64 0.61 0.63 0.40 0.23
0.01 0.02 0.02 0.03 0.12 0.17 0.16 0.16 0.18 0.21 0.29 0.38 0.41 0.36 0.35 0.37 0.66 1.02 1.68 1.67 1.09 0.81 0.75 0.75 0.84 0.87 0.76 0.78 0.83 0.67 0.68 0.52
0.02 0.02 0.06 0.10 0.22 0.25 0.22 0.21 0.22 0.31 0.37 0.43 0.43 0.48 0.38 0.35 0.33 0.47 0.92 1.94 2.00 1.43 0.97 0.81 0.87 0.95 0.87 0.84 0.91 0.90 0.76 0.79
0.01 0.05 0.11 0.17 0.44 0.40 0.32 0.23 0.20 0.23 0.27 0.36 0.35 0.31 0.29 0.22 0.30 0.31 0.31 0.54 1.17 1.30 1.13 0.85 0.92 1.13 1.10 1.09 1.12 1.22 1.33 1.51
0.08 0.18 0.26 0.31 0.40 0.36 0.27 0.22 0.15 0.17 0.20 0.19 0.25 0.32 0.26 0.28 0.43 0.31 0.45 0.42 0.71 1.01 1.22 1.07 0.85 1.00 1.27 1.39 1.39 1.61 1.71 1.63
0.35 0.47 0.40 0.39 0.41 0.35 0.33 0.26 0.23 0.19 0.11 0.11 0.12 0.23 0.25 0.27 0.37 0.23 0.32 0.40 0.65 1.02 1.35 1.67 1.60 1.19 1.18 1.75 1.83 1.73 1.68 1.56
0.56 0.90 0.80 0.53 0.41 0.33 0.35 0.45 0.39 0.34 0.16 0.10 0.14 0.34 0.32 0.35 0.35 0.40 0.43 0.62 0.83 1.09 1.45 1.95 2.49 2.21 1.82 1.65 1.65 1.56 1.38 1.30
0.87 1.21 1.60 1.11 0.75 0.54 0.31 0.37 0.32 0.50 0.58 0.33 0.28 0.44 0.43 0.46 0.61 0.62 0.74 0.91 0.99 1.24 1.54 1.91 2.22 2.55 2.40 2.10 1.83 1.65 1.59 1.37
1.30 1.46 1.73 1.69 1.30 0.99 0.59 0.43 0.28 0.30 0.47 0.66 0.53 0.56 0.46 0.74 0.81 1.09 1.26 1.32 1.44 1.48 1.53 1.63 1.79 1.87 2.19 1.99 1.60 1.31 1.30 1.24
0.94 1.13 1.45 1.63 1.53 1.39 0.94 0.90 0.65 0.51 0.50 0.52 0.42 0.44 0.53 0.67 0.76 0.89 1.32 1.45 1.23 1.00 0.89 0.78 0.71 0.80 1.09 1.33 1.43 1.50 1.32 1.29
0.61 0.64 0.59 0.58 0.65 0.68 0.75 0.64 0.58 0.58 0.58 0.59 0.50 0.63 1.00 1.09 1.13 0.97 0.78 0.65 0.60 0.50 0.44 0.38 0.34 0.49 0.93 0.98 1.13 1.19 1.45 1.45
0.29 0.22 0.23 0.27 0.33 0.39 0.52 0.60 0.51 0.47 0.45 0.41 0.57 0.72 0.64 0.70 0.64 0.49 0.33 0.32 0.40 0.44 0.32 0.29 0.31 0.32 0.79 1.00 1.17 1.14 1.32 1.60
0.15 0.21 0.17 0.27 0.29 0.31 0.44 0.57 0.56 0.41 0.34 0.34 0.37 0.37 0.36 0.31 0.23 0.25 0.30 0.31 0.27 0.30 0.43 0.34 0.26 0.43 0.91 0.78 1.18 0.98 1.08 1.49
0.06 0.09 0.06 0.12 0.26 0.44 0.51 0.54 0.60 0.56 0.37 0.26 0.18 0.14 0.14 0.17 0.27 0.34 0.35 0.33 0.25 0.24 0.32 0.62 0.95 0.93 0.99 0.87 1.09 0.96 0.98 1.23

GFSFLT1_prec_precacc_147.txt.gz
Total_Precipitation_Accumulation
0.03 0.03 0.03 0.08 0.13 0.12 0.68 1.07 1.36 1.46 2.16 2.03 1.81 1.12 0.92 0.86 1.15 1.15 0.99 1.18 1.31 0.82 0.56 0.42 0.37 0.41 0.37 0.33 0.40 0.43 0.51 0.36
0.01 0.02 0.05 0.08 0.12 0.31 0.81 1.22 1.53 1.22 0.84 0.67 0.93 0.85 0.80 0.91 1.02 0.99 0.78 0.91 0.99 1.27 0.85 0.55 0.40 0.46 0.50 0.54 0.40 0.26 0.27 0.34
0.02 0.04 0.10 0.14 0.27 0.38 0.41 0.37 0.54 0.23 0.16 0.25 0.56 0.64 0.75 0.87 1.09 0.85 0.71 0.87 0.77 0.91 0.91 0.83 0.50 0.56 0.57 0.67 0.68 0.47 0.24 0.40
0.02 0.09 0.13 0.15 0.15 0.17 0.06 0.06 0.27 0.23 0.13 0.24 0.50 0.84 1.02 1.19 1.44 1.29 0.90 1.04 1.01 0.91 0.88 0.94 0.70 0.67 0.73 0.69 0.69 0.53 0.35 0.35
0.01 0.01 0.02 0.02 0.02 0.03 0.02 0.07 0.14 0.20 0.26 0.33 0.43 0.68 0.73 0.84 0.89 1.14 0.95 0.91 1.02 1.01 0.92 1.16 1.12 0.92 0.80 0.73 0.78 0.68 0.55 0.35
0.00 0.01 0.02 0.01 0.04 0.04 0.10 0.13 0.16 0.15 0.23 0.41 0.35 0.47 0.63 0.75 0.91 1.17 1.33 0.98 0.80 0.78 0.82 1.07 1.23 0.94 0.80 0.73 0.76 0.78 0.55 0.39
0.01 0.02 0.02 0.03 0.12 0.17 0.16 0.16 0.19 0.21 0.29 0.39 0.41 0.36 0.36 0.38 0.66 1.04 1.70 1.69 1.13 0.87 0.84 0.87 0.96 0.95 0.80 0.81 0.86 0.70 0.70 0.55
0.02 0.02 0.06 0.10 0.22 0.25 0.22 0.21 0.22 0.32 0.39 0.44 0.44 0.49 0.43 0.42 0.40 0.55 1.03 2.05 2.08 1.63 1.18 1.07 1.17 1.33 1.27 1.05 0.95 0.91 0.78 0.81
0.01 0.05 0.11 0.17 0.45 0.41 0.32 0.24 0.21 0.24 0.28 0.39 0.40 0.34 0.35 0.31 0.38 0.41 0.44 0.68 1.32 1.53 1.37 1.07 1.35 1.72 1.67 1.54 1.17 1.24 1.36 1.53
0.08 0.18 0.26 0.31 0.40 0.36 0.29 0.25 0.17 0.19 0.22 0.21 0.29 0.41 0.39 0.39 0.53 0.37 0.52 0.47 0.76 1.07 1.32 1.15 0.96 1.21 1.45 1.55 1.53 1.71 1.77 1.66
0.35 0.47 0.40 0.39 0.42 0.36 0.35 0.29 0.27 0.23 0.16 0.16 0.17 0.30 0.33 0.36 0.49 0.30 0.38 0.45 0.70 1.05 1.38 1.70 1.64 1.21 1.21 1.81 1.92 1.84 1.79 1.62
0.56 0.90 0.80 0.53 0.42 0.35 0.38 0.50 0.45 0.40 0.26 0.24 0.27 0.46 0.42 0.40 0.41 0.45 0.45 0.64 0.85 1.10 1.46 1.95 2.49 2.21 1.85 1.69 1.69 1.60 1.46 1.38
0.87 1.21 1.60 1.11 0.76 0.55 0.34 0.42 0.39 0.58 0.73 0.54 0.49 0.63 0.55 0.54 0.64 0.64 0.75 0.92 1.00 1.24 1.54 1.91 2.22 2.55 2.40 2.11 1.86 1.68 1.62 1.40
1.30 1.46 1.73 1.69 1.30 1.00 0.62 0.50 0.37 0.39 0.57 0.94 0.82 0.92 0.67 0.79 0.82 1.09 1.26 1.32 1.44 1.48 1.53 1.63 1.79 1.87 2.19 1.99 1.60 1.32 1.32 1.27
0.94 1.13 1.45 1.63 1.53 1.39 0.95 0.95 0.78 0.66 0.61 0.62 0.56 0.67 0.88 0.93 0.82 0.90 1.32 1.45 1.23 1.00 0.89 0.78 0.71 0.80 1.09 1.33 1.43 1.50 1.32 1.30
0.61 0.64 0.59 0.58 0.65 0.68 0.76 0.66 0.65 0.69 0.65 0.64 0.52 0.65 1.04 1.15 1.27 1.05 0.81 0.66 0.60 0.50 0.44 0.38 0.34 0.49 0.93 0.98 1.13 1.19 1.45 1.45
0.29 0.22 0.23 0.27 0.33 0.39 0.52 0.61 0.53 0.49 0.47 0.41 0.57 0.72 0.64 0.70 0.64 0.49 0.34 0.33 0.40 0.44 0.32 0.29 0.31 0.32 0.79 1.00 1.17 1.14 1.32 1.60
0.15 0.21 0.17 0.27 0.29 0.31 0.44 0.57 0.56 0.41 0.34 0.34 0.37 0.37 0.36 0.31 0.23 0.25 0.30 0.31 0.27 0.30 0.43 0.34 0.26 0.43 0.91 0.79 1.18 0.98 1.08 1.49
0.06 0.09 0.06 0.12 0.26 0.44 0.51 0.54 0.60 0.56 0.37 0.26 0.18 0.14 0.14 0.17 0.27 0.34 0.35 0.33 0.25 0.24 0.32 0.62 0.95 0.93 0.99 0.87 1.09 0.96 0.98 1.23

GFSFLT1_prec_precacc_153.txt.gz
Total_Precipitation_Accumulation
0.03 0.03 0.03 0.08 0.13 0.12 0.68 1.07 1.36 1.46 2.16 2.03 1.86 1.36 1.31 1.21 1.37 1.31 1.10 1.25 1.38 0.87 0.57 0.42 0.38 0.43 0.37 0.34 0.41 0.43 0.51 0.36
0.01 0.02 0.05 0.08 0.12 0.31 0.81 1.22 1.53 1.22 0.84 0.67 0.93 0.85 0.81 1.07 1.36 1.12 0.84 1.03 1.18 1.36 0.87 0.57 0.45 0.47 0.51 0.72 0.50 0.29 0.29 0.34
0.02 0.04 0.10 0.14 0.27 0.38 0.41 0.37 0.54 0.23 0.16 0.25 0.56 0.64 0.75 0.87 1.10 0.88 0.78 0.98 1.18 1.18 1.05 0.92 0.56 0.59 0.62 0.94 0.90 0.60 0.28 0.44
0.02 0.09 0.13 0.15 0.15 0.17 0.06 0.06 0.27 0.23 0.13 0.24 0.50 0.84 1.02 1.19 1.44 1.29 0.92 1.09 1.09 1.29 0.99 1.17 1.01 0.93 0.90 0.95 1.01 0.73 0.46 0.44
0.01 0.01 0.02 0.02 0.02 0.03 0.02 0.07 0.14 0.20 0.26 0.33 0.43 0.68 0.73 0.84 0.89 1.14 0.95 0.93 1.08 1.22 1.27 1.33 1.27 1.16 1.10 0.97 0.99 0.86 0.73 0.55
0.00 0.01 0.02 0.01 0.04 0.04 0.10 0.13 0.16 0.15 0.23 0.41 0.35 0.47 0.63 0.75 0.91 1.17 1.33 0.98 0.81 0.84 1.13 1.26 1.35 1.24 1.14 1.15 1.11 1.10 0.87 0.72
0.01 0.02 0.02 0.03 0.12 0.17 0.16 0.16 0.19 0.21 0.29 0.39 0.41 0.36 0.36 0.38 0.67 1.04 1.71 1.70 1.16 0.95 1.03 1.09 1.23 1.30 1.16 1.36 1.32 1.13 1.36 1.32
0.02 0.02 0.06 0.10 0.22 0.25 0.22 0.21 0.22 0.32 0.39 0.44 0.44 0.49 0.43 0.42 0.41 0.56 1.05 2.11 2.17 1.71 1.31 1.31 1.43 1.66 1.82 1.71 1.71 1.56 1.42 1.46
0.01 0.05 0.11 0.17 0.45 0.41 0.33 0.24 0.21 0.24 0.28 0.39 0.40 0.34 0.35 0.31 0.39 0.43 0.47 0.74 1.39 1.65 1.49 1.25 1.62 2.13 2.21 2.40 2.30 2.15 2.15 2.00
0.08 0.18 0.26 0.31 0.40 0.36 0.30 0.25 0.17 0.19 0.22 0.21 0.29 0.42 0.39 0.40 0.56 0.44 0.59 0.55 0.81 1.15 1.48 1.34 1.21 1.52 1.98 2.27 2.24 2.22 2.23 2.09
0.35 0.47 0.40 0.39 0.42 0.36 0.35 0.30 0.27 0.24 0.16 0.17 0.20 0.34 0.38 0.40 0.53 0.38 0.50 0.56 0.80 1.18 1.46 1.80 1.80 1.42 1.45 2.03 2.12 2.02 1.92 1.72
0.56 0.90 0.80 0.53 0.42 0.35 0.38 0.50 0.45 0.40 0.28 0.27 0.29 0.49 0.49 0.53 0.55 0.58 0.60 0.78 1.02 1.26 1.59 2.07 2.62 2.36 2.02 1.84 1.84 1.78 1.64 1.50
0.87 1.21 1.60 1.11 0.76 0.55 0.34 0.42 0.40 0.58 0.74 0.61 0.57 0.71 0.69 0.70 0.86 0.88 0.96 1.12 1.20 1.43 1.72 2.08 2.44 2.76 2.60 2.29 1.97 1.79 1.74 1.50
1.30 1.46 1.73 1.69 1.30 1.00 0.62 0.50 0.38 0.40 0.58 0.98 0.92 1.02 0.82 1.09 1.17 1.40 1.60 1.61 1.68 1.74 1.78 1.85 1.98 2.07 2.29 2.13 1.72 1.37 1.36 1.31
0.94 1.13 1.45 1.63 1.53 1.39 0.95 0.95 0.79 0.67 0.64 0.67 0.63 0.76 1.02 1.24 1.24 1.29 1.63 1.76 1.56 1.27 1.20 1.11 0.93 0.94 1.16 1.38 1.50 1.53 1.33 1.30
0.61 0.64 0.59 0.58 0.65 0.68 0.76 0.66 0.65 0.72 0.68 0.69 0.59 0.72 1.11 1.30 1.58 1.56 1.26 0.95 0.81 0.74 0.66 0.59 0.53 0.66 1.00 1.01 1.14 1.20 1.45 1.45
0.29 0.22 0.23 0.27 0.33 0.39 0.52 0.61 0.53 0.49 0.50 0.46 0.60 0.75 0.67 0.73 0.68 0.59 0.61 0.73 0.74 0.59 0.42 0.38 0.38 0.39 0.83 1.02 1.17 1.15 1.32 1.60
0.15 0.21 0.17 0.27 0.29 0.31 0.44 0.57 0.56 0.41 0.35 0.35 0.38 0.39 0.38 0.33 0.26 0.27 0.31 0.33 0.37 0.48 0.59 0.43 0.28 0.45 0.93 0.79 1.19 0.98 1.08 1.49
0.06 0.09 0.06 0.12 0.26 0.44 0.51 0.54 0.60 0.56 0.37 0.26 0.18 0.15 0.14 0.17 0.27 0.34 0.35 0.33 0.25 0.24 0.34 0.69 1.01 0.96 1.00 0.87 1.09 0.96 0.98 1.23

GFSFLT1_prec_precacc_159.txt.gz
Total_Precipitation_Accumulation
0.03 0.03 0.03 0.08 0.13 0.12 0.68 1.07 1.36 1.46 2.16 2.03 1.86 1.36 1.31 1.21 1.38 1.33 1.15 1.31 1.49 1.06 0.78 0.60 0.59 0.64 0.49 0.46 0.58 0.58 0.61 0.50
0.01 0.02 0.05 0.08 0.12 0.31 0.81 1.22 1.53 1.22 0.84 0.67 0.93 0.85 0.81 1.07 1.36 1.12 0.84 1.04 1.20 1.42 0.95 0.64 0.60 0.66 0.70 0.88 0.82 0.67 0.42 0.57
0.02 0.04 0.10 0.14 0.27 0.38 0.41 0.37 0.54 0.23 0.16 0.25 0.56 0.64 0.75 0.87 1.10 0.88 0.78 0.98 1.24 1.28 1.21 1.08 0.71 0.69 0.79 1.20 1.23 1.16 0.58 0.78
0.02 0.09 0.13 0.15 0.15 0.17 0.06 0.06 0.27 0.23 0.13 0.24 0.50 0.84 1.02 1.19 1.44 1.29 0.92 1.09 1.10 1.33 1.09 1.34 1.20 1.20 1.05 1.21 1.42 1.22 0.78 0.83
0.01 0.01 0.02 0.02 0.02 0.03 0.02 0.07 0.14 0.20 0.26 0.33 0.43 0.68 0.73 0.84 0.89 1.14 0.95 0.93 1.08 1.23 1.31 1.46 1.46 1.38 1.37 1.26 1.45 1.36 1.29 0.98
0.00 0.01 0.02 0.01 0.04 0.04 0.10 0.13 0.16 0.15 0.23 0.41 0.35 0.47 0.63 0.75 0.91 1.17 1.33 0.98 0.81 0.84 1.13 1.29 1.44 1.41 1.34 1.41 1.39 1.49 1.44 1.57
0.01 0.02 0.02 0.03 0.12 0.17 0.16 0.16 0.19 0.21 0.29 0.39 0.41 0.36 0.36 0.38 0.67 1.04 1.71 1.70 1.16 0.95 1.03 1.09 1.24 1.35 1.24 1.47 1.55 1.41 1.66 1.76
0.02 0.02 0.06 0.10 0.22 0.25 0.22 0.21 0.22 0.32 0.39 0.44 0.44 0.49 0.43 0.42 0.41 0.57 1.05 2.11 2.17 1.71 1.31 1.31 1.43 1.67 1.85 1.81 1.82 1.79 1.64 1.67
0.01 0.05 0.11 0.17 0.45 0.41 0.33 0.24 0.21 0.24 0.28 0.39 0.40 0.34 0.35 0.32 0.39 0.44 0.47 0.75 1.39 1.66 1.49 1.25 1.62 2.14 2.24 2.47 2.40 2.25 2.30 2.22
0.08 0.18 0.26 0.31 0.40 0.36 0.30 0.25 0.17 0.19 0.22 0.21 0.29 0.42 0.39 0.40 0.56 0.44 0.59 0.55 0.82 1.16 1.49 1.34 1.21 1.52 2.00 2.35 2.32 2.26 2.31 2.22
0.35 0.47 0.40 0.39 0.42 0.36 0.35 0.30 0.27 0.24 0.16 0.17 0.20 0.34 0.38 0.40 0.54 0.38 0.50 0.57 0.80 1.19 1.49 1.85 1.85 1.45 1.46 2.06 2.17 2.08 1.99 1.77
0.56 0.90 0.80 0.53 0.42 0.35 0.38 0.50 0.45 0.40 0.28 0.27 0.29 0.49 0.49 0.53 0.55 0.59 0.60 0.80 1.04 1.30 1.65 2.15 2.69 2.40 2.06 1.88 1.88 1.83 1.69 1.55
0.87 1.21 1.60 1.11 0.76 0.55 0.34 0.42 0.40 0.58 0.74 0.61 0.57 0.71 0.70 0.70 0.87 0.89 0.99 1.17 1.27 1.54 1.86 2.27 2.59 2.86 2.70 2.38 2.03 1.84 1.80 1.56
1.30 1.46 1.73 1.69 1.30 1.00 0.62 0.50 0.38 0.40 0.58 0.98 0.92 1.02 0.82 1.09 1.18 1.43 1.66 1.73 1.82 1.88 1.92 2.04 2.19 2.28 2.56 2.32 1.84 1.49 1.49 1.39
0.94 1.13 1.45 1.63 1.53 1.39 0.95 0.95 0.79 0.67 0.64 0.67 0.63 0.76 1.03 1.24 1.25 1.33 1.71 1.87 1.69 1.42 1.38 1.36 1.10 1.10 1.49 1.75 1.84 1.82 1.63 1.50
0.61 0.64 0.59 0.58 0.65 0.68 0.76 0.66 0.65 0.72 0.68 0.69 0.59 0.72 1.12 1.31 1.61 1.60 1.34 1.07 0.96 0.93 0.84 0.79 0.78 0.93 1.34 1.47 1.60 1.64 1.84 1.80
0.29 0.22 0.23 0.27 0.33 0.39 0.52 0.61 0.53 0.49 0.50 0.46 0.60 0.75 0.67 0.74 0.71 0.63 0.67 0.82 0.87 0.76 0.58 0.54 0.53 0.64 1.19 1.42 1.68 1.69 1.79 2.05
0.15 0.21 0.17 0.27 0.29 0.31 0.44 0.57 0.56 0.41 0.35 0.35 0.38 0.39 0.38 0.33 0.26 0.28 0.33 0.38 0.44 0.58 0.70 0.55 0.37 0.59 1.12 0.98 1.42 1.40 1.60 1.93
0.06 0.09 0.06 0.12 0.26 0.44 0.51 0.54 0.60 0.56 0.37 0.26 0.18 0.15 0.14 0.17 0.27 0.34 0.35 0.33 0.26 0.25 0.36 0.75 1.09 1.02 1.07 0.91 1.13 1.02 1.15 1.59

GFSFLT1_prec_precacc_162.txt.gz
Total_Precipitation_Accumulation
0.03 0.03 0.03 0.08 0.13 0.12 0.68 1.07 1.36 1.46 2.16 2.03 1.86 1.36 1.31 1.21 1.38 1.33 1.15 1.31 1.49 1.06 0.78 0.61 0.61 0.69 0.59 0.57 0.73 0.71 0.69 0.58
0.01 0.02 0.05 0.08 0.12 0.31 0.81 1.22 1.53 1.22 0.84 0.67 0.93 0.85 0.81 1.07 1.36 1.12 0.84 1.04 1.20 1.42 0.95 0.64 0.61 0.68 0.74 0.95 0.92 0.81 0.53 0.69
0.02 0.04 0.10 0.14 0.27 0.38 0.41 0.37 0.54 0.23 0.16 0.25 0.56 0.64 0.75 0.87 1.10 0.88 0.78 0.98 1.24 1.28 1.21 1.08 0.71 0.70 0.80 1.22 1.26 1.22 0.73 1.00
0.02 0.09 0.13 0.15 0.15 0.17 0.06 0.06 0.27 0.23 0.13 0.24 0.50 0.84 1.02 1.19 1.44 1.29 0.92 1.09 1.10 1.33 1.09 1.34 1.21 1.20 1.05 1.21 1.42 1.23 0.82 0.97
0.01 0.01 0.02 0.02 0.02 0.03 0.02 0.07 0.14 0.20 0.26 0.33 0.43 0.68 0.73 0.84 0.89 1.14 0.95 0.93 1.08 1.23 1.31 1.46 1.46 1.39 1.37 1.26 1.45 1.37 1.30 0.99
0.00 0.01 0.02 0.01 0.04 0.04 0.10 0.13 0.16 0.15 0.23 0.41 0.35 0.47 0.63 0.75 0.91 1.17 1.33 0.98 0.81 0.84 1.13 1.29 1.44 1.41 1.35 1.42 1.39 1.50 1.45 1.59
0.01 0.02 0.02 0.03 0.12 0.17 0.16 0.16 0.19 0.21 0.29 0.39 0.41 0.36 0.36 0.38 0.67 1.04 1.71 1.70 1.16 0.95 1.03 1.09 1.24 1.35 1.24 1.48 1.56 1.42 1.67 1.77
0.02 0.02 0.06 0.10 0.22 0.25 0.22 0.21 0.22 0.32 0.39 0.44 0.44 0.49 0.43 0.42 0.41 0.57 1.05 2.11 2.17 1.71 1.31 1.31 1.44 1.67 1.85 1.81 1.84 1.81 1.65 1.68
0.01 0.05 0.11 0.17 0.45 0.41 0.33 0.24 0.21 0.24 0.28 0.39 0.40 0.34 0.35 0.32 0.39 0.44 0.48 0.75 1.39 1.66 1.49 1.25 1.63 2.15 2.24 2.49 2.41 2.25 2.30 2.22
0.08 0.18 0.26 0.31 0.40 0.36 0.30 0.25 0.17 0.19 0.22 0.21 0.29 0.42 0.39 0.40 0.56 0.44 0.60 0.56 0.82 1.17 1.49 1.35 1.22 1.53 2.03 2.36 2.32 2.26 2.31 2.23
0.35 0.47 0.40 0.39 0.42 0.36 0.35 0.30 0.27 0.24 0.16 0.17 0.20 0.34 0.38 0.40 0.54 0.38 0.50 0.57 0.81 1.19 1.50 1.85 1.85 1.47 1.47 2.06 2.17 2.08 1.99 1.77
0.56 0.90 0.80 0.53 0.42 0.35 0.38 0.50 0.45 0.40 0.28 0.27 0.29 0.49 0.49 0.53 0.55 0.59 0.60 0.80 1.05 1.30 1.66 2.16 2.71 2.41 2.06 1.88 1.89 1.83 1.69 1.55
0.87 1.21 1.60 1.11 0.76 0.55 0.34 0.42 0.40 0.58 0.74 0.61 0.57 0.71 0.70 0.70 0.87 0.89 0.99 1.17 1.28 1.55 1.87 2.29 2.61 2.87 2.70 2.40 2.05 1.85 1.82 1.57
1.30 1.46 1.73 1.69 1.30 1.00 0.62 0.50 0.38 0.40 0.58 0.98 0.92 1.02 0.82 1.09 1.18 1.43 1.66 1.73 1.82 1.88 1.94 2.06 2.21 2.29 2.59 2.36 1.89 1.53 1.54 1.45
0.94 1.13 1.45 1.63 1.53 1.39 0.95 0.95 0.79 0.67 0.64 0.67 0.63 0.76 1.03 1.24 1.25 1.33 1.71 1.87 1.69 1.43 1.39 1.38 1.13 1.14 1.53 1.80 1.89 1.89 1.77 1.67
0.61 0.64 0.59 0.58 0.65 0.68 0.76 0.66 0.65 0.72 0.68 0.69 0.59 0.72 1.12 1.31 1.61 1.60 1.34 1.07 0.97 0.93 0.84 0.80 0.80 0.96 1.38 1.51 1.64 1.72 1.98 2.01
0.29 0.22 0.23 0.27 0.33 0.39 0.52 0.61 0.53 0.49 0.50 0.46 0.60 0.75 0.67 0.74 0.71 0.63 0.67 0.82 0.87 0.76 0.58 0.54 0.54 0.65 1.21 1.45 1.74 1.74 1.88 2.18
0.15 0.21 0.17 0.27 0.29 0.31 0.44 0.57 0.56 0.41 0.35 0.35 0.38 0.39 0.39 0.33 0.26 0.28 0.33 0.38 0.44 0.58 0.70 0.55 0.37 0.59 1.13 1.00 1.45 1.44 1.66 2.02
0.06 0.09 0.06 0.12 0.26 0.44 0.51 0.54 0.60 0.56 0.37 0.26 0.18 0.15 0.14 0.17 0.27 0.34 0.35 0.33 0.26 0.25 0.36 0.75 1.09 1.02 1.07 0.93 1.14 1.03 1.20 1.66

GFSFLT1_prec_precacc_165.txt.gz
Total_Precipitation_Accumulation
0.03 0.03 0.03 0.08 0.13 0.12 0.68 1.07 1.36 1.46 2.16 2.03 1.86 1.36 1.31 1.21 1.38 1.33 1.15 1.31 1.49 1.06 0.78 0.61 0.61 0.69 0.59 0.57 0.74 0.74 0.75 0.65
0.01 0.02 0.05 0.08 0.12 0.31 0.81 1.22 1.53 1.22 0.84 0.67 0.93 0.85 0.81 1.07 1.36 1.12 0.84 1.04 1.20 1.42 0.95 0.64 0.61 0.68 0.74 0.95 0.92 0.82 0.55 0.77
0.02 0.04 0.10 0.14 0.27 0.38 0.41 0.37 0.54 0.23 0.16 0.25 0.56 0.64 0.75 0.87 1.10 0.88 0.78 0.98 1.24 1.28 1.21 1.08 0.71 0.70 0.80 1.22 1.26 1.23 0.74 1.05
0.02 0.09 0.13 0.15 0.15 0.17 0.06 0.06 0.27 0.23 0.13 0.24 0.50 0.84 1.02 1.19 1.44 1.29 0.92 1.09 1.10 1.33 1.09 1.34 1.21 1.20 1.05 1.21 1.42 1.23 0.82 0.97
0.01 0.01 0.02 0.02 0.02 0.03 0.02 0.07 0.14 0.20 0.26 0.33 0.43 0.68 0.73 0.84 0.89 1.14 0.95 0.93 1.08 1.23 1.31 1.46 1.46 1.39 1.38 1.27 1.46 1.37 1.31 1.00
0.00 0.01 0.02 0.01 0.04 0.04 0.10 0.13 0.16 0.15 0.23 0.41 0.35 0.47 0.63 0.75 0.91 1.17 1.33 0.98 0.81 0.84 1.13 1.29 1.44 1.41 1.35 1.42 1.40 1.50 1.46 1.60
0.01 0.02 0.02 0.03 0.12 0.17 0.16 0.16 0.19 0.21 0.29 0.39 0.41 0.36 0.36 0.38 0.67 1.04 1.71 1.70 1.16 0.95 1.03 1.09 1.24 1.35 1.25 1.48 1.56 1.43 1.69 1.78
0.02 0.02 0.06 0.10 0.22 0.25 0.22 0.21 0.22 0.32 0.39 0.44 0.44 0.49 0.43 0.42 0.41 0.57 1.05 2.11 2.17 1.71 1.31 1.31 1.44 1.67 1.86 1.82 1.87 1.84 1.66 1.69
0.01 0.05 0.11 0.17 0.45 0.41 0.33 0.24 0.21 0.24 0.28 0.39 0.40 0.34 0.35 0.32 0.39 0.44 0.48 0.75 1.40 1.66 1.49 1.25 1.63 2.15 2.25 2.50 2.42 2.26 2.30 2.23
0.08 0.18 0.26 0.31 0.40 0.36 0.30 0.25 0.17 0.19 0.22 0.21 0.29 0.42 0.39 0.40 0.56 0.44 0.60 0.56 0.82 1.17 1.49 1.35 1.22 1.54 2.04 2.36 2.32 2.26 2.31 2.23
0.35 0.47 0.40 0.39 0.42 0.36 0.35 0.30 0.27 0.24 0.16 0.17 0.20 0.34 0.38 0.40 0.54 0.38 0.50 0.57 0.81 1.20 1.50 1.85 1.86 1.48 1.48 2.06 2.17 2.08 1.99 1.77
0.56 0.90 0.80 0.53 0.42 0.35 0.38 0.50 0.45 0.40 0.28 0.27 0.29 0.49 0.49 0.53 0.55 0.59 0.60 0.80 1.05 1.30 1.66 2.17 2.71 2.42 2.06 1.88 1.89 1.83 1.69 1.56
0.87 1.21 1.60 1.11 0.76 0.55 0.34 0.42 0.40 0.58 0.74 0.61 0.57 0.71 0.70 0.70 0.87 0.89 0.99 1.17 1.28 1.55 1.87 2.29 2.61 2.88 2.70 2.40 2.06 1.85 1.83 1.58
1.30 1.46 1.73 1.69 1.30 1.00 0.62 0.50 0.38 0.40 0.58 0.98 0.92 1.02 0.82 1.09 1.18 1.43 1.66 1.73 1.82 1.88 1.94 2.06 2.21 2.29 2.59 2.37 1.89 1.54 1.55 1.47
0.94 1.13 1.45 1.63 1.53 1.39 0.95 0.95 0.79 0.67 0.64 0.67 0.63 0.76 1.03 1.24 1.25 1.33 1.71 1.87 1.69 1.43 1.39 1.38 1.13 1.14 1.54 1.81 1.90 1.90 1.77 1.70
0.61 0.64 0.59 0.58 0.65 0.68 0.76 0.66 0.65 0.72 0.68 0.69 0.59 0.72 1.12 1.31 1.61 1.60 1.34 1.07 0.97 0.94 0.84 0.80 0.80 0.96 1.38 1.51 1.65 1.73 1.99 2.03
0.29 0.22 0.23 0.27 0.33 0.39 0.52 0.61 0.53 0.49 0.50 0.46 0.60 0.75 0.67 0.74 0.71 0.63 0.67 0.82 0.87 0.76 0.58 0.54 0.54 0.65 1.21 1.45 1.74 1.75 1.89 2.20
0.15 0.21 0.17 0.27 0.29 0.31 0.44 0.57 0.56 0.41 0.35 0.35 0.38 0.39 0.39 0.33 0.26 0.28 0.33 0.38 0.44 0.58 0.70 0.56 0.37 0.59 1.13 1.00 1.46 1.45 1.67 2.05
0.06 0.09 0.06 0.12 0.26 0.44 0.51 0.54 0.60 0.56 0.37 0.26 0.18 0.15 0.14 0.17 0.27 0.34 0.35 0.33 0.26 0.25 0.36 0.75 1.09 1.02 1.07 0.93 1.15 1.03 1.20 1.67

GFSFLT1_prec_precacc_171.txt.gz
Total_Precipitation_Accumulation
0.03 0.03 0.03 0.08 0.13 0.12 0.68 1.07 1.36 1.46 2.16 2.03 1.86 1.36 1.31 1.21 1.38 1.33 1.15 1.31 1.49 1.06 0.78 0.61 0.61 0.69 0.59 0.57 0.74 0.74 0.75 0.65
0.01 0.02 0.05 0.08 0.12 0.31 0.81 1.22 1.53 1.22 0.84 0.67 0.93 0.85 0.81 1.07 1.36 1.12 0.84 1.04 1.20 1.42 0.95 0.64 0.61 0.68 0.74 0.95 0.92 0.82 0.55 0.77
0.02 0.04 0.10 0.14 0.27 0.38 0.41 0.37 0.54 0.23 0.16 0.25 0.56 0.64 0.75 0.87 1.10 0.88 0.78 0.98 1.24 1.28 1.21 1.08 0.71 0.70 0.80 1.22 1.26 1.23 0.74 1.05
0.02 0.09 0.13 0.15 0.15 0.17 0.06 0.06 0.27 0.23 0.13 0.24 0.50 0.84 1.02 1.19 1.44 1.29 0.92 1.09 1.10 1.33 1.09 1.34 1.21 1.21 1.05 1.21 1.43 1.23 0.83 0.97
0.01 0.01 0.02 0.02 0.02 0.03 0.02 0.07 0.14 0.20 0.26 0.33 0.43 0.68 0.73 0.84 0.89 1.14 0.95 0.93 1.08 1.23 1.31 1.46 1.46 1.39 1.38 1.27 1.46 1.38 1.32 1.02
0.00 0.01 0.02 0.01 0.04 0.04 0.10 0.13 0.16 0.15 0.23 0.41 0.35 0.47 0.63 0.75 0.91 1.17 1.33 0.98 0.81 0.84 1.13 1.29 1.44 1.41 1.35 1.42 1.40 1.51 1.48 1.63
0.01 0.02 0.02 0.03 0.12 0.17 0.16 0.16 0.19 0.21 0.29 0.39 0.41 0.36 0.36 0.38 0.67 1.04 1.71 1.70 1.16 0.95 1.03 1.09 1.24 1.36 1.25 1.48 1.57 1.45 1.70 1.80
0.02 0.02 0.06 0.10 0.22 0.25 0.22 0.21 0.22 0.32 0.39 0.44 0.44 0.49 0.43 0.42 0.41 0.57 1.05 2.11 2.17 1.71 1.31 1.31 1.44 1.67 1.86 1.83 1.88 1.84 1.66 1.69
0.01 0.05 0.11 0.17 0.45 0.41 0.33 0.24 0.21 0.24 0.28 0.39 0.40 0.34 0.35 0.32 0.39 0.44 0.48 0.75 1.40 1.66 1.50 1.25 1.63 2.15 2.25 2.51 2.43 2.26 2.30 2.23
0.08 0.18 0.26 0.31 0.40 0.36 0.30 0.25 0.17 0.19 0.22 0.21 0.29 0.42 0.39 0.40 0.56 0.44 0.60 0.56 0.82 1.17 1.49 1.35 1.22 1.54 2.04 2.37 2.32 2.26 2.31 2.23
0.35 0.47 0.40 0.39 0.42 0.36 0.35 0.30 0.27 0.24 0.16 0.17 0.20 0.34 0.38 0.40 0.54 0.38 0.50 0.57 0.81 1.20 1.50 1.85 1.86 1.48 1.48 2.06 2.17 2.09 2.00 1.77
0.56 0.90 0.80 0.53 0.42 0.35 0.38 0.50 0.45 0.40 0.28 0.27 0.29 0.49 0.49 0.53 0.55 0.59 0.60 0.80 1.05 1.30 1.66 2.17 2.71 2.42 2.06 1.88 1.89 1.84 1.69 1.56
0.87 1.21 1.60 1.11 0.76 0.55 0.34 0.42 0.40 0.58 0.74 0.61 0.57 0.71 0.70 0.70 0.87 0.89 0.99 1.17 1.28 1.55 1.87 2.29 2.61 2.88 2.70 2.40 2.06 1.85 1.83 1.59
1.30 1.46 1.73 1.69 1.30 1.00 0.62 0.50 0.38 0.40 0.58 0.98 0.92 1.02 0.82 1.09 1.18 1.43 1.66 1.73 1.83 1.88 1.94 2.06 2.21 2.30 2.59 2.37 1.89 1.54 1.55 1.48
0.94 1.13 1.45 1.63 1.53 1.39 0.95 0.95 0.79 0.67 0.64 0.67 0.63 0.76 1.03 1.24 1.25 1.33 1.71 1.87 1.69 1.43 1.39 1.38 1.13 1.14 1.54 1.81 1.90 1.90 1.78 1.70
0.61 0.64 0.59 0.58 0.65 0.68 0.76 0.66 0.65 0.72 0.68 0.69 0.59 0.72 1.12 1.31 1.61 1.60 1.34 1.07 0.97 0.94 0.85 0.80 0.81 0.96 1.38 1.51 1.66 1.75 2.00 2.05
0.29 0.22 0.23 0.27 0.33 0.39 0.52 0.61 0.53 0.49 0.50 0.46 0.60 0.75 0.67 0.74 0.71 0.63 0.67 0.82 0.87 0.76 0.59 0.54 0.54 0.65 1.21 1.45 1.76 1.77 1.90 2.21
0.15 0.21 0.17 0.27 0.29 0.31 0.44 0.57 0.56 0.41 0.35 0.35 0.38 0.39 0.39 0.33 0.26 0.28 0.33 0.38 0.44 0.58 0.70 0.56 0.37 0.59 1.13 1.01 1.46 1.45 1.69 2.07
0.06 0.09 0.06 0.12 0.26 0.44 0.51 0.54 0.60 0.56 0.37 0.26 0.18 0.15 0.14 0.17 0.27 0.34 0.35 0.33 0.26 0.25 0.36 0.75 1.09 1.02 1.07 0.94 1.15 1.03 1.20 1.68

GFSFLT1_prec_precacc_174.txt.gz
Total_Precipitation_Accumulation
0.03 0.03 0.03 0.08 0.13 0.12 0.68 1.07 1.36 1.46 2.16 2.03 1.86 1.36 1.31 1.21 1.38 1.33 1.15 1.31 1.49 1.06 0.78 0.61 0.61 0.69 0.59 0.57 0.74 0.74 0.75 0.65
0.01 0.02 0.05 0.08 0.12 0.31 0.81 1.22 1.53 1.22 0.84 0.67 0.93 0.85 0.81 1.07 1.36 1.12 0.84 1.04 1.20 1.42 0.95 0.64 0.61 0.68 0.74 0.95 0.92 0.82 0.55 0.77
0.02 0.04 0.10 0.14 0.27 0.38 0.41 0.37 0.54 0.23 0.16 0.25 0.56 0.64 0.75 0.87 1.10 0.88 0.78 0.98 1.24 1.28 1.21 1.08 0.71 0.70 0.80 1.22 1.26 1.23 0.74 1.05
0.02 0.09 0.13 0.15 0.15 0.17 0.06 0.06 0.27 0.23 0.13 0.24 0.50 0.84 1.02 1.19 1.44 1.29 0.92 1.09 1.10 1.33 1.09 1.34 1.21 1.21 1.05 1.21 1.43 1.23 0.83 0.97
0.01 0.01 0.02 0.02 0.02 0.03 0.02 0.07 0.14 0.20 0.26 0.33 0.43 0.68 0.73 0.84 0.89 1.14 0.95 0.93 1.08 1.23 1.31 1.46 1.46 1.39 1.38 1.27 1.46 1.38 1.32 1.02
0.00 0.01 0.02 0.01 0.04 0.04 0.10 0.13 0.16 0.15 0.23 0.41 0.35 0.47 0.63 0.75 0.91 1.17 1.33 0.98 0.81 0.84 1.13 1.29 1.44 1.41 1.35 1.42 1.40 1.51 1.48 1.63
0.01 0.02 0.02 0.03 0.12 0.17 0.16 0.16 0.19 0.21 0.29 0.39 0.41 0.36 0.36 0.38 0.67 1.04 1.71 1.70 1.16 0.95 1.03 1.09 1.24 1.36 1.25 1.48 1.57 1.45 1.70 1.80
0.02 0.02 0.06 0.10 0.22 0.25 0.22 0.21 0.22 0.32 0.39 0.44 0.44 0.49 0.43 0.42 0.41 0.57 1.05 2.11 2.17 1.71 1.31 1.31 1.44 1.67 1.86 1.83 1.88 1.84 1.66 1.69
0.01 0.05 0.11 0.17 0.45 0.41 0.33 0.24 0.21 0.24 0.28 0.39 0.40 0.34 0.35 0.32 0.39 0.44 0.48 0.75 1.40 1.66 1.50 1.25 1.63 2.15 2.25 2.51 2.43 2.26 2.30 2.23
0.08 0.18 0.26 0.31 0.40 0.36 0.30 0.25 0.17 0.19 0.22 0.21 0.29 0.42 0.39 0.40 0.56 0.44 0.60 0.56 0.82 1.17 1.49 1.35 1.22 1.54 2.04 2.37 2.32 2.26 2.31 2.23
0.35 0.47 0.40 0.39 0.42 0.36 0.35 0.30 0.27 0.24 0.16 0.17 0.20 0.34 0.38 0.40 0.54 0.38 0.50 0.57 0.81 1.20 1.50 1.85 1.86 1.48 1.48 2.06 2.17 2.09 2.00 1.77
0.56 0.90 0.80 0.53 0.42 0.35 0.38 0.50 0.45 0.40 0.28 0.27 0.29 0.49 0.49 0.53 0.55 0.59 0.60 0.80 1.05 1.30 1.66 2.17 2.71 2.42 2.06 1.88 1.89 1.84 1.69 1.56
0.87 1.21 1.60 1.11 0.76 0.55 0.34 0.42 0.40 0.58 0.74 0.61 0.57 0.71 0.70 0.70 0.87 0.89 0.99 1.17 1.28 1.55 1.87 2.29 2.61 2.88 2.70 2.41 2.06 1.85 1.83 1.59
1.30 1.46 1.73 1.69 1.30 1.00 0.62 0.50 0.38 0.40 0.58 0.98 0.92 1.02 0.82 1.09 1.18 1.43 1.66 1.73 1.83 1.88 1.94 2.06 2.21 2.30 2.59 2.38 1.89 1.54 1.55 1.48
0.94 1.13 1.45 1.63 1.53 1.39 0.95 0.95 0.79 0.67 0.64 0.67 0.63 0.76 1.03 1.24 1.25 1.33 1.71 1.87 1.69 1.43 1.39 1.38 1.13 1.14 1.54 1.81 1.90 1.90 1.78 1.70
0.61 0.64 0.59 0.58 0.65 0.68 0.76 0.66 0.65 0.72 0.68 0.69 0.59 0.72 1.12 1.31 1.61 1.60 1.34 1.07 0.97 0.94 0.85 0.80 0.81 0.96 1.38 1.51 1.66 1.75 2.00 2.05
0.29 0.22 0.23 0.27 0.33 0.39 0.52 0.61 0.53 0.49 0.50 0.46 0.60 0.75 0.67 0.74 0.71 0.63 0.67 0.82 0.87 0.76 0.59 0.54 0.54 0.65 1.21 1.45 1.76 1.77 1.90 2.21
0.15 0.21 0.17 0.27 0.29 0.31 0.44 0.57 0.56 0.41 0.35 0.35 0.38 0.39 0.39 0.33 0.26 0.28 0.33 0.38 0.44 0.58 0.70 0.56 0.37 0.59 1.13 1.01 1.46 1.45 1.69 2.07
0.06 0.09 0.06 0.12 0.26 0.44 0.51 0.54 0.60 0.56 0.37 0.26 0.18 0.15 0.14 0.17 0.27 0.34 0.35 0.33 0.26 0.25 0.36 0.75 1.09 1.02 1.07 0.94 1.15 1.03 1.20 1.68

GFSFLT1_prec_precacc_180.txt.gz
Total_Precipitation_Accumulation
0.03 0.03 0.03 0.08 0.13 0.12 0.68 1.07 1.36 1.46 2.16 2.03 1.86 1.36 1.31 1.21 1.38 1.33 1.15 1.31 1.49 1.06 0.78 0.61 0.61 0.69 0.59 0.57 0.74 0.74 0.75 0.65
0.01 0.02 0.05 0.08 0.12 0.31 0.81 1.22 1.53 1.22 0.84 0.67 0.93 0.85 0.81 1.07 1.36 1.12 0.84 1.04 1.20 1.42 0.95 0.64 0.61 0.68 0.74 0.95 0.92 0.82 0.55 0.77
0.02 0.04 0.10 0.14 0.27 0.38 0.41 0.37 0.54 0.23 0.16 0.25 0.56 0.64 0.75 0.87 1.10 0.88 0.78 0.98 1.24 1.28 1.21 1.08 0.71 0.70 0.80 1.22 1.26 1.23 0.74 1.05
0.02 0.09 0.13 0.15 0.15 0.17 0.06 0.06 0.27 0.23 0.13 0.24 0.50 0.84 1.02 1.19 1.44 1.29 0.92 1.09 1.10 1.33 1.09 1.34 1.21 1.21 1.05 1.21 1.43 1.23 0.83 0.97
0.01 0.01 0.02 0.02 0.02 0.03 0.02 0.07 0.14 0.20 0.26 0.33 0.43 0.68 0.73 0.84 0.89 1.14 0.95 0.93 1.08 1.23 1.31 1.46 1.46 1.39 1.38 1.27 1.46 1.38 1.32 1.02
0.00 0.01 0.02 0.01 0.04 0.04 0.10 0.13 0.16 0.15 0.23 0.41 0.35 0.47 0.63 0.75 0.91 1.17 1.33 0.98 0.81 0.84 1.13 1.29 1.44 1.41 1.35 1.42 1.40 1.51 1.48 1.64
0.01 0.02 0.02 0.03 0.12 0.17 0.16 0.16 0.19 0.21 0.29 0.39 0.41 0.36 0.36 0.38 0.67 1.04 1.71 1.70 1.16 0.95 1.03 1.09 1.24 1.36 1.25 1.48 1.57 1.45 1.70 1.80
0.02 0.02 0.06 0.10 0.22 0.25 0.22 0.21 0.22 0.32 0.39 0.44 0.44 0.49 0.43 0.42 0.41 0.57 1.05 2.11 2.17 1.71 1.31 1.31 1.44 1.67 1.86 1.83 1.88 1.84 1.66 1.69
0.01 0.05 0.11 0.17 0.45 0.41 0.33 0.24 0.21 0.24 0.28 0.39 0.40 0.34 0.35 0.32 0.39 0.44 0.48 0.75 1.40 1.66 1.50 1.25 1.63 2.15 2.25 2.51 2.43 2.26 2.30 2.23
0.08 0.18 0.26 0.31 0.40 0.36 0.30 0.25 0.17 0.19 0.22 0.21 0.29 0.42 0.39 0.40 0.56 0.44 0.60 0.56 0.82 1.17 1.49 1.35 1.22 1.54 2.04 2.37 2.32 2.26 2.31 2.23
0.35 0.47 0.40 0.39 0.42 0.36 0.35 0.30 0.27 0.24 0.16 0.17 0.20 0.34 0.38 0.40 0.54 0.38 0.50 0.57 0.81 1.20 1.50 1.85 1.86 1.48 1.48 2.06 2.17 2.09 2.00 1.77
0.56 0.90 0.80 0.53 0.42 0.35 0.38 0.50 0.45 0.40 0.28 0.27 0.29 0.49 0.49 0.53 0.55 0.59 0.60 0.80 1.05 1.30 1.66 2.17 2.71 2.42 2.06 1.88 1.89 1.84 1.69 1.56
0.87 1.21 1.60 1.11 0.76 0.55 0.34 0.42 0.40 0.58 0.74 0.61 0.57 0.71 0.70 0.70 0.87 0.89 0.99 1.17 1.28 1.55 1.87 2.29 2.61 2.88 2.70 2.41 2.06 1.85 1.83 1.59
1.30 1.46 1.73 1.69 1.30 1.00 0.62 0.50 0.38 0.40 0.58 0.98 0.92 1.02 0.82 1.09 1.18 1.43 1.66 1.73 1.83 1.88 1.94 2.06 2.21 2.30 2.59 2.38 1.89 1.54 1.55 1.48
0.94 1.13 1.45 1.63 1.53 1.39 0.95 0.95 0.79 0.67 0.64 0.67 0.63 0.76 1.03 1.24 1.25 1.33 1.71 1.87 1.69 1.43 1.39 1.38 1.13 1.14 1.54 1.81 1.90 1.90 1.78 1.70
0.61 0.64 0.59 0.58 0.65 0.68 0.76 0.66 0.65 0.72 0.68 0.69 0.59 0.72 1.12 1.31 1.61 1.60 1.34 1.07 0.97 0.94 0.85 0.80 0.81 0.96 1.38 1.51 1.66 1.75 2.00 2.05
0.29 0.22 0.23 0.27 0.33 0.39 0.52 0.61 0.53 0.49 0.50 0.46 0.60 0.75 0.67 0.74 0.71 0.63 0.67 0.82 0.87 0.76 0.59 0.54 0.54 0.65 1.21 1.45 1.76 1.77 1.90 2.21
0.15 0.21 0.17 0.27 0.29 0.31 0.44 0.57 0.56 0.41 0.35 0.35 0.38 0.39 0.39 0.33 0.26 0.28 0.33 0.38 0.44 0.58 0.70 0.56 0.37 0.59 1.13 1.01 1.46 1.45 1.69 2.07
0.06 0.09 0.06 0.12 0.26 0.44 0.51 0.55 0.60 0.56 0.37 0.26 0.18 0.15 0.14 0.17 0.27 0.34 0.35 0.33 0.26 0.25 0.36 0.75 1.09 1.02 1.07 0.94 1.15 1.03 1.20 1.68

GFSFLT1_prec_precacc_183.txt.gz
Total_Precipitation_Accumulation
0.03 0.03 0.03 0.08 0.13 0.12 0.68 1.07 1.36 1.46 2.16 2.03 1.86 1.36 1.31 1.21 1.38 1.33 1.15 1.31 1.49 1.06 0.78 0.61 0.61 0.69 0.59 0.57 0.74 0.74 0.75 0.65
0.01 0.02 0.05 0.08 0.12 0.31 0.81 1.22 1.53 1.22 0.84 0.67 0.93 0.85 0.81 1.07 1.36 1.12 0.84 1.04 1.20 1.42 0.95 0.64 0.61 0.68 0.74 0.95 0.92 0.82 0.55 0.77
0.02 0.04 0.10 0.14 0.27 0.38 0.41 0.37 0.54 0.23 0.16 0.25 0.56 0.64 0.75 0.87 1.10 0.88 0.78 0.98 1.24 1.28 1.21 1.08 0.71 0.70 0.80 1.22 1.26 1.23 0.74 1.05
0.02 0.09 0.13 0.15 0.15 0.17 0.06 0.06 0.27 0.23 0.13 0.24 0.50 0.84 1.02 1.19 1.44 1.29 0.92 1.09 1.10 1.33 1.09 1.34 1.21 1.21 1.05 1.21 1.43 1.23 0.83 0.97
0.01 0.01 0.02 0.02 0.02 0.03 0.02 0.07 0.14 0.20 0.26 0.33 0.43 0.68 0.73 0.84 0.89 1.14 0.95 0.93 1.08 1.23 1.31 1.46 1.46 1.39 1.38 1.27 1.46 1.38 1.32 1.02
0.00 0.01 0.02 0.01 0.04 0.04 0.10 0.13 0.16 0.15 0.23 0.41 0.35 0.47 0.63 0.75 0.91 1.17 1.33 0.98 0.81 0.84 1.13 1.29 1.44 1.41 1.35 1.42 1.40 1.51 1.48 1.64
0.01 0.02 0.02 0.03 0.12 0.17 0.16 0.16 0.19 0.21 0.29 0.39 0.41 0.36 0.36 0.38 0.67 1.04 1.71 1.70 1.16 0.95 1.03 1.09 1.24 1.36 1.25 1.48 1.57 1.45 1.70 1.80
0.02 0.02 0.06 0.10 0.22 0.25 0.22 0.21 0.22 0.32 0.39 0.44 0.44 0.49 0.43 0.42 0.41 0.57 1.05 2.11 2.17 1.71 1.31 1.31 1.44 1.67 1.86 1.83 1.88 1.84 1.66 1.69
0.01 0.05 0.11 0.17 0.45 0.41 0.33 0.24 0.21 0.24 0.28 0.39 0.40 0.34 0.35 0.32 0.39 0.44 0.48 0.75 1.40 1.66 1.50 1.25 1.63 2.15 2.25 2.51 2.43 2.26 2.30 2.23
0.08 0.18 0.26 0.31 0.40 0.36 0.30 0.25 0.17 0.19 0.22 0.21 0.29 0.42 0.39 0.40 0.56 0.44 0.60 0.56 0.82 1.17 1.49 1.35 1.22 1.54 2.04 2.37 2.32 2.26 2.31 2.23
0.35 0.47 0.40 0.39 0.42 0.36 0.35 0.30 0.27 0.24 0.16 0.17 0.20 0.34 0.38 0.40 0.54 0.38 0.50 0.57 0.81 1.20 1.50 1.85 1.86 1.48 1.48 2.06 2.17 2.09 2.00 1.77
0.56 0.90 0.80 0.53 0.42 0.35 0.38 0.50 0.45 0.40 0.28 0.27 0.29 0.49 0.49 0.53 0.55 0.59 0.60 0.80 1.05 1.30 1.66 2.17 2.71 2.42 2.06 1.88 1.89 1.84 1.69 1.56
0.87 1.21 1.60 1.11 0.76 0.55 0.34 0.42 0.40 0.58 0.74 0.61 0.57 0.71 0.70 0.70 0.87 0.89 0.99 1.17 1.28 1.55 1.87 2.29 2.61 2.88 2.70 2.41 2.06 1.85 1.83 1.59
1.30 1.46 1.73 1.69 1.30 1.00 0.62 0.50 0.38 0.40 0.58 0.98 0.92 1.02 0.82 1.09 1.18 1.43 1.66 1.73 1.83 1.88 1.94 2.06 2.21 2.30 2.59 2.38 1.89 1.54 1.55 1.48
0.94 1.13 1.45 1.63 1.53 1.39 0.95 0.95 0.79 0.67 0.64 0.67 0.63 0.76 1.03 1.24 1.25 1.33 1.71 1.87 1.69 1.43 1.39 1.38 1.13 1.14 1.54 1.81 1.90 1.90 1.78 1.70
0.61 0.64 0.59 0.58 0.65 0.68 0.76 0.66 0.65 0.72 0.68 0.69 0.59 0.72 1.12 1.31 1.61 1.60 1.34 1.07 0.97 0.94 0.85 0.80 0.81 0.96 1.38 1.51 1.66 1.75 2.00 2.05
0.29 0.22 0.23 0.27 0.33 0.39 0.52 0.61 0.53 0.49 0.50 0.46 0.60 0.75 0.67 0.74 0.71 0.63 0.67 0.82 0.87 0.76 0.59 0.54 0.54 0.65 1.21 1.45 1.76 1.77 1.90 2.21
0.15 0.21 0.17 0.27 0.29 0.31 0.44 0.57 0.56 0.41 0.35 0.35 0.38 0.39 0.39 0.33 0.26 0.28 0.33 0.38 0.44 0.58 0.70 0.56 0.37 0.59 1.13 1.01 1.46 1.45 1.69 2.07
0.06 0.09 0.06 0.12 0.26 0.44 0.51 0.55 0.60 0.57 0.38 0.27 0.20 0.17 0.15 0.17 0.27 0.34 0.35 0.33 0.26 0.25 0.36 0.75 1.09 1.02 1.07 0.94 1.15 1.03 1.20 1.68

GFSFLT1_prec_precacc_186.txt.gz
Total_Precipitation_Accumulation
0.03 0.03 0.03 0.08 0.13 0.12 0.68 1.07 1.36 1.46 2.16 2.03 1.86 1.36 1.31 1.21 1.38 1.33 1.15 1.31 1.49 1.06 0.78 0.61 0.61 0.69 0.59 0.57 0.74 0.74 0.75 0.65
0.01 0.02 0.05 0.08 0.12 0.31 0.81 1.22 1.53 1.22 0.84 0.67 0.93 0.85 0.81 1.07 1.36 1.12 0.84 1.04 1.20 1.42 0.95 0.64 0.61 0.68 0.74 0.95 0.92 0.82 0.55 0.77
0.02 0.04 0.10 0.14 0.27 0.38 0.41 0.37 0.54 0.23 0.16 0.25 0.56 0.64 0.75 0.87 1.10 0.88 0.78 0.98 1.24 1.28 1.21 1.08 0.71 0.70 0.80 1.22 1.26 1.23 0.74 1.05
0.02 0.09 0.13 0.15 0.15 0.17 0.06 0.06 0.27 0.23 0.13 0.24 0.50 0.84 1.02 1.19 1.44 1.29 0.92 1.09 1.10 1.33 1.09 1.34 1.21 1.21 1.05 1.21 1.43 1.23 0.83 0.97
0.01 0.01 0.02 0.02 0.02 0.03 0.02 0.07 0.14 0.20 0.26 0.33 0.43 0.68 0.73 0.84 0.89 1.14 0.95 0.93 1.08 1.23 1.31 1.46 1.46 1.39 1.38 1.27 1.46 1.38 1.32 1.02
0.00 0.01 0.02 0.01 0.04 0.04 0.10 0.13 0.16 0.15 0.23 0.41 0.35 0.47 0.63 0.75 0.91 1.17 1.33 0.98 0.81 0.84 1.13 1.29 1.44 1.41 1.35 1.42 1.40 1.51 1.48 1.64
0.01 0.02 0.02 0.03 0.12 0.17 0.16 0.16 0.19 0.21 0.29 0.39 0.41 0.36 0.36 0.38 0.67 1.04 1.71 1.70 1.16 0.95 1.03 1.09 1.24 1.36 1.25 1.48 1.57 1.45 1.70 1.80
0.02 0.02 0.06 0.10 0.22 0.25 0.22 0.21 0.22 0.32 0.39 0.44 0.44 0.49 0.43 0.42 0.41 0.57 1.05 2.11 2.17 1.71 1.31 1.31 1.44 1.67 1.86 1.83 1.88 1.84 1.66 1.69
0.01 0.05 0.11 0.17 0.45 0.41 0.33 0.24 0.21 0.24 0.28 0.39 0.40 0.34 0.35 0.32 0.39 0.44 0.48 0.75 1.40 1.66 1.50 1.25 1.63 2.15 2.25 2.51 2.43 2.26 2.30 2.23
0.08 0.18 0.26 0.31 0.40 0.36 0.30 0.25 0.17 0.19 0.22 0.21 0.29 0.42 0.39 0.40 0.56 0.44 0.60 0.56 0.82 1.17 1.49 1.35 1.22 1.54 2.04 2.37 2.32 2.26 2.31 2.23
0.35 0.47 0.40 0.39 0.42 0.36 0.35 0.30 0.27 0.24 0.16 0.17 0.20 0.34 0.38 0.40 0.54 0.38 0.50 0.57 0.81 1.20 1.50 1.85 1.86 1.48 1.48 2.06 2.17 2.09 2.00 1.77
0.56 0.90 0.80 0.53 0.42 0.35 0.38 0.50 0.45 0.40 0.28 0.27 0.29 0.49 0.49 0.53 0.55 0.59 0.60 0.80 1.05 1.30 1.66 2.17 2.71 2.42 2.06 1.88 1.89 1.84 1.69 1.56
0.87 1.21 1.60 1.11 0.76 0.55 0.34 0.42 0.40 0.58 0.74 0.61 0.57 0.71 0.70 0.70 0.87 0.89 0.99 1.17 1.28 1.55 1.87 2.29 2.61 2.88 2.70 2.41 2.06 1.85 1.83 1.59
1.30 1.46 1.73 1.69 1.30 1.00 0.62 0.50 0.38 0.40 0.58 0.98 0.92 1.02 0.82 1.09 1.18 1.43 1.66 1.73 1.83 1.88 1.94 2.06 2.21 2.30 2.59 2.38 1.89 1.54 1.55 1.48
0.94 1.13 1.45 1.63 1.53 1.39 0.95 0.95 0.79 0.67 0.64 0.67 0.63 0.76 1.03 1.24 1.25 1.33 1.71 1.87 1.69 1.43 1.39 1.38 1.13 1.14 1.54 1.81 1.90 1.90 1.78 1.70
0.61 0.64 0.59 0.58 0.65 0.68 0.76 0.66 0.65 0.72 0.68 0.69 0.59 0.72 1.12 1.31 1.61 1.60 1.34 1.07 0.97 0.94 0.85 0.80 0.81 0.96 1.38 1.51 1.66 1.75 2.00 2.05
0.29 0.22 0.23 0.27 0.33 0.39 0.52 0.61 0.53 0.49 0.50 0.46 0.60 0.75 0.67 0.74 0.71 0.63 0.67 0.82 0.87 0.76 0.59 0.54 0.54 0.65 1.21 1.45 1.76 1.77 1.90 2.21
0.15 0.21 0.17 0.27 0.29 0.31 0.44 0.57 0.56 0.41 0.35 0.35 0.39 0.40 0.39 0.34 0.28 0.29 0.33 0.38 0.44 0.58 0.70 0.56 0.37 0.59 1.13 1.01 1.46 1.45 1.69 2.07
0.06 0.09 0.06 0.12 0.26 0.44 0.51 0.55 0.60 0.57 0.38 0.28 0.21 0.18 0.19 0.25 0.35 0.37 0.35 0.33 0.26 0.25 0.36 0.75 1.09 1.02 1.07 0.94 1.15 1.03 1.20 1.68

GFSFLT1_prec_precacc_189.txt.gz
Total_Precipitation_Accumulation
0.03 0.03 0.03 0.08 0.13 0.12 0.68 1.07 1.36 1.46 2.16 2.03 1.86 1.36 1.31 1.21 1.38 1.33 1.15 1.31 1.49 1.06 0.78 0.61 0.61 0.69 0.59 0.57 0.74 0.74 0.75 0.65
0.01 0.02 0.05 0.08 0.12 0.31 0.81 1.22 1.53 1.22 0.84 0.67 0.93 0.85 0.81 1.07 1.36 1.12 0.84 1.04 1.20 1.42 0.95 0.64 0.61 0.68 0.74 0.95 0.92 0.82 0.55 0.77
0.02 0.04 0.10 0.14 0.27 0.38 0.41 0.37 0.54 0.23 0.16 0.25 0.56 0.64 0.75 0.87 1.10 0.88 0.78 0.98 1.24 1.28 1.21 1.08 0.71 0.70 0.80 1.22 1.26 1.23 0.74 1.05
0.02 0.09 0.13 0.15 0.15 0.17 0.06 0.06 0.27 0.23 0.13 0.24 0.50 0.84 1.02 1.19 1.44 1.29 0.92 1.09 1.10 1.33 1.09 1.34 1.21 1.21 1.05 1.21 1.43 1.23 0.83 0.97
0.01 0.01 0.02 0.02 0.02 0.03 0.02 0.07 0.14 0.20 0.26 0.33 0.43 0.68 0.73 0.84 0.89 1.14 0.95 0.93 1.08 1.23 1.31 1.46 1.46 1.39 1.38 1.27 1.46 1.38 1.32 1.02
0.00 0.01 0.02 0.01 0.04 0.04 0.10 0.13 0.16 0.15 0.23 0.41 0.35 0.47 0.63 0.75 0.91 1.17 1.33 0.98 0.81 0.84 1.13 1.29 1.44 1.41 1.35 1.42 1.40 1.51 1.48 1.64
0.01 0.02 0.02 0.03 0.12 0.17 0.16 0.16 0.19 0.21 0.29 0.39 0.41 0.36 0.36 0.38 0.67 1.04 1.71 1.70 1.16 0.95 1.03 1.09 1.24 1.36 1.25 1.48 1.57 1.45 1.70 1.80
0.02 0.02 0.06 0.10 0.22 0.25 0.22 0.21 0.22 0.32 0.39 0.44 0.44 0.49 0.43 0.42 0.41 0.57 1.05 2.11 2.17 1.71 1.31 1.31 1.44 1.67 1.86 1.83 1.88 1.84 1.66 1.69
0.01 0.05 0.11 0.17 0.45 0.41 0.33 0.24 0.21 0.24 0.28 0.39 0.40 0.34 0.35 0.32 0.39 0.44 0.48 0.75 1.40 1.66 1.50 1.25 1.63 2.15 2.25 2.51 2.43 2.26 2.30 2.23
0.08 0.18 0.26 0.31 0.40 0.36 0.30 0.25 0.17 0.19 0.22 0.21 0.29 0.42 0.39 0.40 0.56 0.44 0.60 0.56 0.82 1.17 1.49 1.35 1.22 1.54 2.04 2.37 2.32 2.26 2.31 2.23
0.35 0.47 0.40 0.39 0.42 0.36 0.35 0.30 0.27 0.24 0.16 0.17 0.20 0.34 0.38 0.40 0.54 0.38 0.50 0.57 0.81 1.20 1.50 1.85 1.86 1.48 1.48 2.06 2.17 2.09 2.00 1.77
0.56 0.90 0.80 0.53 0.42 0.35 0.38 0.50 0.45 0.40 0.28 0.27 0.29 0.49 0.49 0.53 0.55 0.59 0.60 0.80 1.05 1.30 1.66 2.17 2.71 2.42 2.06 1.88 1.89 1.84 1.69 1.56
0.87 1.21 1.60 1.11 0.76 0.55 0.34 0.42 0.40 0.58 0.74 0.61 0.57 0.71 0.70 0.70 0.87 0.89 0.99 1.17 1.28 1.55 1.87 2.29 2.61 2.88 2.70 2.41 2.06 1.85 1.83 1.59
1.30 1.46 1.73 1.69 1.30 1.00 0.62 0.50 0.38 0.40 0.58 0.98 0.92 1.03 0.82 1.09 1.18 1.43 1.66 1.73 1.83 1.88 1.94 2.06 2.21 2.30 2.59 2.38 1.89 1.54 1.55 1.48
0.94 1.13 1.45 1.63 1.53 1.39 0.95 0.95 0.79 0.67 0.64 0.67 0.63 0.77 1.04 1.25 1.25 1.33 1.71 1.87 1.69 1.43 1.39 1.38 1.13 1.14 1.54 1.81 1.90 1.90 1.78 1.70
0.61 0.64 0.59 0.58 0.65 0.68 0.76 0.66 0.65 0.72 0.68 0.69 0.59 0.72 1.12 1.31 1.61 1.60 1.34 1.07 0.97 0.94 0.85 0.80 0.81 0.96 1.38 1.51 1.66 1.75 2.00 2.05
0.29 0.22 0.23 0.27 0.33 0.39 0.52 0.61 0.53 0.49 0.50 0.46 0.61 0.76 0.68 0.76 0.73 0.63 0.67 0.82 0.87 0.77 0.59 0.54 0.54 0.65 1.21 1.45 1.76 1.77 1.90 2.21
0.15 0.21 0.17 0.27 0.29 0.31 0.44 0.57 0.56 0.41 0.35 0.35 0.39 0.41 0.42 0.37 0.30 0.30 0.36 0.43 0.49 0.60 0.71 0.56 0.37 0.59 1.13 1.01 1.46 1.45 1.69 2.07
0.06 0.09 0.06 0.12 0.26 0.44 0.51 0.55 0.60 0.58 0.39 0.29 0.23 0.22 0.25 0.31 0.41 0.46 0.45 0.42 0.30 0.26 0.36 0.75 1.09 1.02 1.07 0.94 1.15 1.03 1.20 1.68